Time,TemperatureF,DewpointF,PressureIn,WindDirection,WindDirectionDegrees,WindSpeedMPH,WindSpeedGustMPH,Humidity,HourlyPrecipIn,Conditions,Clouds,dailyrainin,SoftwareType,DateUTC
2013-02-02 00:00:00,27.9,25.6,-100.00,North,2,0.0,0.0,91,0.00,,,0.00,VWS V14.01,2013-02-02 08:00:00,
2013-02-02 00:05:00,27.9,25.6,-100.00,North,2,0.0,0.0,91,0.00,,,0.00,VWS V14.01,2013-02-02 08:05:00,
2013-02-02 00:10:00,27.9,25.6,-100.00,North,2,0.0,0.0,91,0.00,,,0.00,VWS V14.01,2013-02-02 08:10:00,
2013-02-02 00:15:00,27.9,25.6,-100.00,North,2,0.0,0.0,91,0.00,,,0.00,VWS V14.01,2013-02-02 08:15:00,
2013-02-02 00:20:00,27.9,25.6,-100.00,North,2,0.0,0.0,91,0.00,,,0.00,VWS V14.01,2013-02-02 08:20:00,
2013-02-02 00:25:00,27.9,25.8,-100.00,North,2,0.0,0.0,92,0.00,,,0.00,VWS V14.01,2013-02-02 08:25:00,
2013-02-02 00:30:00,27.7,25.4,-100.00,North,2,0.0,0.0,91,0.00,,,0.00,VWS V14.01,2013-02-02 08:30:00,
2013-02-02 00:35:00,27.3,25.0,-100.00,North,2,0.0,0.0,91,0.00,,,0.00,VWS V14.01,2013-02-02 08:35:00,
2013-02-02 00:40:00,27.1,24.9,-100.00,North,2,0.0,0.0,91,0.00,,,0.00,VWS V14.01,2013-02-02 08:40:00,
2013-02-02 00:45:00,27.0,24.7,-100.00,North,2,0.0,0.0,91,0.00,,,0.00,VWS V14.01,2013-02-02 08:45:00,
2013-02-02 00:50:00,27.0,24.7,-100.00,North,2,0.0,0.0,91,0.00,,,0.00,VWS V14.01,2013-02-02 08:50:00,
2013-02-02 00:55:00,26.8,24.5,-100.00,North,2,0.0,0.0,91,0.00,,,0.00,VWS V14.01,2013-02-02 08:55:00,
2013-02-02 01:00:00,26.8,24.8,-100.00,North,2,0.0,0.0,92,0.00,,,0.00,VWS V14.01,2013-02-02 09:00:00,
2013-02-02 01:05:00,26.6,24.6,-100.00,North,2,0.0,0.0,92,0.00,,,0.00,VWS V14.01,2013-02-02 09:05:00,
2013-02-02 01:10:00,26.4,24.1,-100.00,North,2,0.0,0.0,91,0.00,,,0.00,VWS V14.01,2013-02-02 09:10:00,
2013-02-02 01:15:00,26.2,24.2,-100.00,North,2,0.0,0.0,92,0.00,,,0.00,VWS V14.01,2013-02-02 09:15:00,
2013-02-02 01:20:00,26.2,24.2,-100.00,North,2,0.0,0.0,92,0.00,,,0.00,VWS V14.01,2013-02-02 09:20:00,
2013-02-02 01:25:00,26.1,24.1,-100.00,North,2,0.0,0.0,92,0.00,,,0.00,VWS V14.01,2013-02-02 09:25:00,
2013-02-02 01:30:00,26.1,23.8,-100.00,North,2,0.0,0.0,91,0.00,,,0.00,VWS V14.01,2013-02-02 09:30:00,
2013-02-02 01:35:00,25.9,23.6,-100.00,North,2,0.0,0.0,91,0.00,,,0.00,VWS V14.01,2013-02-02 09:35:00,
2013-02-02 01:40:00,25.9,23.9,-100.00,North,2,0.0,0.0,92,0.00,,,0.00,VWS V14.01,2013-02-02 09:40:00,
2013-02-02 01:45:00,25.9,23.9,-100.00,North,2,0.0,0.0,92,0.00,,,0.00,VWS V14.01,2013-02-02 09:45:00,
2013-02-02 01:50:00,25.9,23.9,-100.00,North,2,0.0,0.0,92,0.00,,,0.00,VWS V14.01,2013-02-02 09:50:00,
2013-02-02 01:55:00,25.9,23.9,-100.00,North,2,0.0,0.0,92,0.00,,,0.00,VWS V14.01,2013-02-02 09:55:00,
2013-02-02 02:00:00,26.1,24.3,-100.00,North,2,0.0,0.0,93,0.00,,,0.00,VWS V14.01,2013-02-02 10:00:00,
2013-02-02 02:05:00,26.1,24.3,-100.00,North,2,0.0,0.0,93,0.00,,,0.00,VWS V14.01,2013-02-02 10:05:00,
2013-02-02 02:10:00,26.1,24.1,-100.00,North,2,0.0,0.0,92,0.00,,,0.00,VWS V14.01,2013-02-02 10:10:00,
2013-02-02 02:15:00,26.1,24.1,-100.00,North,2,0.0,0.0,92,0.00,,,0.00,VWS V14.01,2013-02-02 10:15:00,
2013-02-02 02:20:00,26.1,24.3,-100.00,North,2,0.0,0.0,93,0.00,,,0.00,VWS V14.01,2013-02-02 10:20:00,
2013-02-02 02:25:00,26.1,24.3,-100.00,North,2,0.0,0.0,93,0.00,,,0.00,VWS V14.01,2013-02-02 10:25:00,
2013-02-02 02:30:00,26.1,24.3,-100.00,North,2,0.0,0.0,93,0.00,,,0.00,VWS V14.01,2013-02-02 10:30:00,
2013-02-02 02:35:00,26.1,24.3,-100.00,North,2,0.0,0.0,93,0.00,,,0.00,VWS V14.01,2013-02-02 10:35:00,
2013-02-02 02:40:00,25.9,24.1,-100.00,North,2,0.0,0.0,93,0.00,,,0.00,VWS V14.01,2013-02-02 10:40:00,
2013-02-02 02:45:00,25.7,24.0,-100.00,North,2,0.0,0.0,93,0.00,,,0.00,VWS V14.01,2013-02-02 10:45:00,
2013-02-02 02:50:00,25.7,24.0,-100.00,North,2,0.0,0.0,93,0.00,,,0.00,VWS V14.01,2013-02-02 10:50:00,
2013-02-02 02:55:00,25.7,24.0,-100.00,North,2,0.0,0.0,93,0.00,,,0.00,VWS V14.01,2013-02-02 10:55:00,
2013-02-02 03:00:00,25.7,24.0,-100.00,North,2,0.0,0.0,93,0.00,,,0.00,VWS V14.01,2013-02-02 11:00:00,
2013-02-02 03:05:00,25.5,23.8,-100.00,North,2,0.0,0.0,93,0.00,,,0.00,VWS V14.01,2013-02-02 11:05:00,
2013-02-02 03:10:00,25.3,23.6,-100.00,North,2,0.0,0.0,93,0.00,,,0.00,VWS V14.01,2013-02-02 11:10:00,
2013-02-02 03:15:00,25.3,23.6,-100.00,North,2,0.0,0.0,93,0.00,,,0.00,VWS V14.01,2013-02-02 11:15:00,
2013-02-02 03:20:00,25.3,23.6,-100.00,North,2,0.0,0.0,93,0.00,,,0.00,VWS V14.01,2013-02-02 11:20:00,
2013-02-02 03:25:00,25.3,23.6,-100.00,North,2,0.0,0.0,93,0.00,,,0.00,VWS V14.01,2013-02-02 11:25:00,
2013-02-02 03:30:00,25.2,23.4,-100.00,North,2,0.0,0.0,93,0.00,,,0.00,VWS V14.01,2013-02-02 11:30:00,
2013-02-02 03:35:00,25.2,23.4,-100.00,North,2,0.0,0.0,93,0.00,,,0.00,VWS V14.01,2013-02-02 11:35:00,
2013-02-02 03:40:00,25.0,23.2,-100.00,North,2,0.0,0.0,93,0.00,,,0.00,VWS V14.01,2013-02-02 11:40:00,
2013-02-02 03:45:00,25.0,23.2,-100.00,North,2,0.0,0.0,93,0.00,,,0.00,VWS V14.01,2013-02-02 11:45:00,
2013-02-02 03:50:00,25.0,23.2,-100.00,North,2,0.0,0.0,93,0.00,,,0.00,VWS V14.01,2013-02-02 11:50:00,
2013-02-02 03:55:00,25.0,23.2,-100.00,North,2,0.0,0.0,93,0.00,,,0.00,VWS V14.01,2013-02-02 11:55:00,
2013-02-02 04:00:00,25.0,23.2,-100.00,North,2,0.0,0.0,93,0.00,,,0.00,VWS V14.01,2013-02-02 12:00:00,
2013-02-02 04:05:00,24.8,23.3,-100.00,North,2,0.0,0.0,94,0.00,,,0.00,VWS V14.01,2013-02-02 12:05:00,
2013-02-02 04:10:00,24.6,22.9,-100.00,North,2,0.0,0.0,93,0.00,,,0.00,VWS V14.01,2013-02-02 12:10:00,
2013-02-02 04:15:00,24.6,22.9,-100.00,North,2,0.0,0.0,93,0.00,,,0.00,VWS V14.01,2013-02-02 12:15:00,
2013-02-02 04:20:00,24.6,23.1,-100.00,North,2,0.0,0.0,94,0.00,,,0.00,VWS V14.01,2013-02-02 12:20:00,
2013-02-02 04:25:00,24.6,23.1,-100.00,North,2,0.0,0.0,94,0.00,,,0.00,VWS V14.01,2013-02-02 12:25:00,
2013-02-02 04:30:00,25.0,23.5,-100.00,North,2,0.0,0.0,94,0.00,,,0.00,VWS V14.01,2013-02-02 12:30:00,
2013-02-02 04:35:00,24.8,23.3,-100.00,North,2,0.0,0.0,94,0.00,,,0.00,VWS V14.01,2013-02-02 12:35:00,
2013-02-02 04:40:00,24.8,23.3,-100.00,North,2,0.0,0.0,94,0.00,,,0.00,VWS V14.01,2013-02-02 12:40:00,
2013-02-02 04:45:00,24.8,23.3,-100.00,North,2,0.0,0.0,94,0.00,,,0.00,VWS V14.01,2013-02-02 12:45:00,
2013-02-02 04:50:00,24.6,23.1,-100.00,North,2,0.0,0.0,94,0.00,,,0.00,VWS V14.01,2013-02-02 12:50:00,
2013-02-02 04:55:00,24.4,23.0,-100.00,North,2,0.0,0.0,94,0.00,,,0.00,VWS V14.01,2013-02-02 12:55:00,
2013-02-02 05:00:00,24.4,23.0,-100.00,North,2,0.0,0.0,94,0.00,,,0.00,VWS V14.01,2013-02-02 13:00:00,
2013-02-02 05:05:00,24.4,23.0,-100.00,North,2,0.0,0.0,94,0.00,,,0.00,VWS V14.01,2013-02-02 13:05:00,
2013-02-02 05:10:00,24.4,23.0,-100.00,North,2,0.0,0.0,94,0.00,,,0.00,VWS V14.01,2013-02-02 13:10:00,
2013-02-02 05:15:00,24.4,23.0,-100.00,North,2,0.0,0.0,94,0.00,,,0.00,VWS V14.01,2013-02-02 13:15:00,
2013-02-02 05:20:00,24.3,22.8,-100.00,North,2,0.0,0.0,94,0.00,,,0.00,VWS V14.01,2013-02-02 13:20:00,
2013-02-02 05:25:00,24.1,22.6,-100.00,North,2,0.0,0.0,94,0.00,,,0.00,VWS V14.01,2013-02-02 13:25:00,
2013-02-02 05:30:00,24.1,22.6,-100.00,North,2,0.0,0.0,94,0.00,,,0.00,VWS V14.01,2013-02-02 13:30:00,
2013-02-02 05:35:00,23.7,22.2,-100.00,North,2,0.0,0.0,94,0.00,,,0.00,VWS V14.01,2013-02-02 13:35:00,
2013-02-02 05:40:00,23.7,22.2,-100.00,North,2,0.0,0.0,94,0.00,,,0.00,VWS V14.01,2013-02-02 13:40:00,
2013-02-02 05:45:00,23.7,22.2,-100.00,North,2,0.0,0.0,94,0.00,,,0.00,VWS V14.01,2013-02-02 13:45:00,
2013-02-02 05:50:00,23.7,22.2,-100.00,North,2,0.0,0.0,94,0.00,,,0.00,VWS V14.01,2013-02-02 13:50:00,
2013-02-02 05:55:00,23.7,22.2,-100.00,North,2,0.0,0.0,94,0.00,,,0.00,VWS V14.01,2013-02-02 13:55:00,
2013-02-02 06:00:00,23.7,22.2,-100.00,North,2,0.0,0.0,94,0.00,,,0.00,VWS V14.01,2013-02-02 14:00:00,
2013-02-02 06:05:00,23.9,22.4,-100.00,North,2,0.0,0.0,94,0.00,,,0.00,VWS V14.01,2013-02-02 14:05:00,
2013-02-02 06:10:00,23.7,22.2,-100.00,North,2,0.0,0.0,94,0.00,,,0.00,VWS V14.01,2013-02-02 14:10:00,
2013-02-02 06:15:00,23.5,22.1,-100.00,North,2,0.0,0.0,94,0.00,,,0.00,VWS V14.01,2013-02-02 14:15:00,
2013-02-02 06:20:00,23.5,22.1,-100.00,North,2,0.0,0.0,94,0.00,,,0.00,VWS V14.01,2013-02-02 14:20:00,
2013-02-02 06:25:00,23.7,22.2,-100.00,North,2,0.0,0.0,94,0.00,,,0.00,VWS V14.01,2013-02-02 14:25:00,
2013-02-02 06:30:00,23.7,22.2,-100.00,North,2,0.0,0.0,94,0.00,,,0.00,VWS V14.01,2013-02-02 14:30:00,
2013-02-02 06:35:00,23.7,22.2,-100.00,North,2,0.0,0.0,94,0.00,,,0.00,VWS V14.01,2013-02-02 14:35:00,
2013-02-02 06:40:00,23.5,22.1,-100.00,North,2,0.0,0.0,94,0.00,,,0.00,VWS V14.01,2013-02-02 14:40:00,
2013-02-02 06:45:00,23.7,22.2,-100.00,North,2,0.0,0.0,94,0.00,,,0.00,VWS V14.01,2013-02-02 14:45:00,
2013-02-02 06:50:00,23.5,22.1,-100.00,North,2,0.0,0.0,94,0.00,,,0.00,VWS V14.01,2013-02-02 14:50:00,
2013-02-02 06:55:00,23.5,22.1,-100.00,North,2,0.0,0.0,94,0.00,,,0.00,VWS V14.01,2013-02-02 14:55:00,
2013-02-02 07:00:00,23.5,22.1,-100.00,North,2,0.0,0.0,94,0.00,,,0.00,VWS V14.01,2013-02-02 15:00:00,
2013-02-02 07:05:00,23.5,22.1,-100.00,North,2,0.0,0.0,94,0.00,,,0.00,VWS V14.01,2013-02-02 15:05:00,
2013-02-02 07:10:00,23.7,22.2,-100.00,North,2,0.0,0.0,94,0.00,,,0.00,VWS V14.01,2013-02-02 15:10:00,
2013-02-02 07:15:00,23.9,22.4,-100.00,SSE,164,0.0,0.0,94,0.00,,,0.00,VWS V14.01,2013-02-02 15:15:00,
2013-02-02 07:20:00,24.1,22.9,-100.00,SSE,157,0.0,0.0,95,0.00,,,0.00,VWS V14.01,2013-02-02 15:20:00,
2013-02-02 07:25:00,24.1,22.9,-100.00,SSE,158,0.0,0.0,95,0.00,,,0.00,VWS V14.01,2013-02-02 15:25:00,
2013-02-02 07:30:00,24.4,23.5,-100.00,SSE,163,0.0,0.0,96,0.00,,,0.00,VWS V14.01,2013-02-02 15:30:00,
2013-02-02 07:35:00,24.4,23.5,-100.00,SSE,163,0.0,0.0,96,0.00,,,0.00,VWS V14.01,2013-02-02 15:35:00,
2013-02-02 07:40:00,24.4,23.5,-100.00,SSE,163,0.0,0.0,96,0.00,,,0.00,VWS V14.01,2013-02-02 15:40:00,
2013-02-02 07:45:00,24.4,23.5,-100.00,SSE,163,0.0,0.0,96,0.00,,,0.00,VWS V14.01,2013-02-02 15:45:00,
2013-02-02 07:50:00,24.4,23.5,-100.00,SSE,163,0.0,0.0,96,0.00,,,0.00,VWS V14.01,2013-02-02 15:50:00,
2013-02-02 07:55:00,24.4,23.5,-100.00,SSE,163,0.0,0.0,96,0.00,,,0.00,VWS V14.01,2013-02-02 15:55:00,
2013-02-02 08:00:00,24.6,23.6,-100.00,SSE,163,0.0,0.0,96,0.00,,,0.00,VWS V14.01,2013-02-02 16:00:00,
2013-02-02 08:05:00,24.6,23.6,-100.00,SSE,163,0.0,0.0,96,0.00,,,0.00,VWS V14.01,2013-02-02 16:05:00,
2013-02-02 08:10:00,25.0,24.0,-100.00,SSE,163,0.0,0.0,96,0.00,,,0.00,VWS V14.01,2013-02-02 16:10:00,
2013-02-02 08:15:00,25.2,24.2,-100.00,SSE,163,0.0,0.0,96,0.00,,,0.00,VWS V14.01,2013-02-02 16:15:00,
2013-02-02 08:20:00,25.5,24.5,-100.00,SSE,163,0.0,0.0,96,0.00,,,0.00,VWS V14.01,2013-02-02 16:20:00,
2013-02-02 08:25:00,25.7,24.7,-100.00,SSE,163,0.0,0.0,96,0.00,,,0.00,VWS V14.01,2013-02-02 16:25:00,
2013-02-02 08:30:00,26.1,25.1,-100.00,South,185,0.0,0.0,96,0.00,,,0.00,VWS V14.01,2013-02-02 16:30:00,
2013-02-02 08:35:00,26.2,25.3,-100.00,SW,226,0.0,0.0,96,0.00,,,0.00,VWS V14.01,2013-02-02 16:35:00,
2013-02-02 08:40:00,26.6,25.6,-100.00,SSW,206,0.0,0.0,96,0.00,,,0.00,VWS V14.01,2013-02-02 16:40:00,
2013-02-02 08:45:00,26.8,25.8,-100.00,SSE,159,0.0,0.0,96,0.00,,,0.00,VWS V14.01,2013-02-02 16:45:00,
2013-02-02 08:50:00,27.0,26.0,-100.00,South,170,0.0,0.0,96,0.00,,,0.00,VWS V14.01,2013-02-02 16:50:00,
2013-02-02 08:55:00,27.3,26.3,-100.00,South,180,0.0,0.0,96,0.00,,,0.00,VWS V14.01,2013-02-02 16:55:00,
2013-02-02 09:00:00,27.9,26.9,-100.00,South,188,0.0,0.0,96,0.00,,,0.00,VWS V14.01,2013-02-02 17:00:00,
2013-02-02 09:05:00,28.2,27.2,-100.00,SSE,149,2.7,2.7,96,0.00,,,0.00,VWS V14.01,2013-02-02 17:05:00,
2013-02-02 09:10:00,28.6,27.6,-100.00,SW,227,0.0,0.0,96,0.00,,,0.00,VWS V14.01,2013-02-02 17:10:00,
2013-02-02 09:15:00,28.6,27.6,-100.00,WSW,257,0.0,0.0,96,0.00,,,0.00,VWS V14.01,2013-02-02 17:15:00,
2013-02-02 09:20:00,28.6,27.3,-100.00,WSW,257,0.0,0.0,95,0.00,,,0.00,VWS V14.01,2013-02-02 17:20:00,
2013-02-02 09:25:00,28.8,27.5,-100.00,WSW,257,0.0,0.0,95,0.00,,,0.00,VWS V14.01,2013-02-02 17:25:00,
2013-02-02 09:30:00,28.9,27.7,-100.00,SW,214,0.0,0.0,95,0.00,,,0.00,VWS V14.01,2013-02-02 17:30:00,
2013-02-02 09:35:00,29.3,28.0,-100.00,SW,225,0.0,0.0,95,0.00,,,0.00,VWS V14.01,2013-02-02 17:35:00,
2013-02-02 09:40:00,29.8,28.8,-100.00,SW,215,0.0,0.0,96,0.00,,,0.00,VWS V14.01,2013-02-02 17:40:00,
2013-02-02 09:45:00,30.6,29.6,-100.00,WSW,239,3.6,3.6,96,0.00,,,0.00,VWS V14.01,2013-02-02 17:45:00,
2013-02-02 09:50:00,31.5,30.5,-100.00,SSE,153,0.0,0.0,96,0.00,,,0.00,VWS V14.01,2013-02-02 17:50:00,
2013-02-02 09:55:00,32.4,31.4,-100.00,WSW,237,0.0,0.0,96,0.00,,,0.00,VWS V14.01,2013-02-02 17:55:00,
2013-02-02 10:00:00,32.9,31.9,-100.00,WSW,241,0.0,0.0,96,0.00,,,0.00,VWS V14.01,2013-02-02 18:00:00,
2013-02-02 10:05:00,33.4,32.4,-100.00,SSW,206,0.0,0.0,96,0.00,,,0.00,VWS V14.01,2013-02-02 18:05:00,
2013-02-02 10:10:00,34.0,32.7,-100.00,South,180,0.0,0.0,95,0.00,,,0.00,VWS V14.01,2013-02-02 18:10:00,
2013-02-02 10:15:00,34.5,32.7,-100.00,SW,224,2.2,3.1,93,0.00,,,0.00,VWS V14.01,2013-02-02 18:15:00,
2013-02-02 10:20:00,34.9,31.7,-100.00,SW,231,0.0,0.0,88,0.00,,,0.00,VWS V14.01,2013-02-02 18:20:00,
2013-02-02 10:25:00,35.2,31.8,-100.00,WSW,250,3.6,3.6,87,0.00,,,0.00,VWS V14.01,2013-02-02 18:25:00,
2013-02-02 10:30:00,35.4,31.7,-100.00,SW,230,0.0,0.0,86,0.00,,,0.00,VWS V14.01,2013-02-02 18:30:00,
2013-02-02 10:35:00,35.6,31.8,-100.00,SW,226,0.0,0.0,86,0.00,,,0.00,VWS V14.01,2013-02-02 18:35:00,
2013-02-02 10:40:00,36.0,30.7,-100.00,SW,218,0.0,3.6,81,0.00,,,0.00,VWS V14.01,2013-02-02 18:40:00,
2013-02-02 10:45:00,36.3,30.1,-100.00,SSE,164,3.6,3.6,78,0.00,,,0.00,VWS V14.01,2013-02-02 18:45:00,
2013-02-02 10:50:00,36.7,28.9,-100.00,SW,219,0.0,0.0,73,0.00,,,0.00,VWS V14.01,2013-02-02 18:50:00,
2013-02-02 10:55:00,36.9,30.0,-100.00,WSW,246,0.0,0.0,76,0.00,,,0.00,VWS V14.01,2013-02-02 18:55:00,
2013-02-02 11:00:00,37.0,30.2,-100.00,SSW,211,0.0,0.0,76,0.00,,,0.00,VWS V14.01,2013-02-02 19:00:00,
2013-02-02 11:05:00,37.2,28.4,-100.00,SW,224,0.0,0.0,70,0.00,,,0.00,VWS V14.01,2013-02-02 19:05:00,
2013-02-02 11:10:00,37.8,27.8,-100.00,SSE,160,0.0,0.0,67,0.00,,,0.00,VWS V14.01,2013-02-02 19:10:00,
2013-02-02 11:15:00,38.1,28.5,-100.00,SSE,149,0.0,0.0,68,0.00,,,0.00,VWS V14.01,2013-02-02 19:15:00,
2013-02-02 11:20:00,38.7,28.3,-100.00,South,172,0.0,0.0,66,0.00,,,0.00,VWS V14.01,2013-02-02 19:20:00,
2013-02-02 11:25:00,38.8,28.1,-100.00,SW,226,2.2,2.2,65,0.00,,,0.00,VWS V14.01,2013-02-02 19:25:00,
2013-02-02 11:30:00,39.2,27.3,-100.00,WSW,239,2.7,3.1,62,0.00,,,0.00,VWS V14.01,2013-02-02 19:30:00,
2013-02-02 11:35:00,39.6,27.2,-100.00,South,189,0.0,0.0,61,0.00,,,0.00,VWS V14.01,2013-02-02 19:35:00,
2013-02-02 11:40:00,39.9,26.8,-100.00,SSW,212,0.0,0.0,59,0.00,,,0.00,VWS V14.01,2013-02-02 19:40:00,
2013-02-02 11:45:00,40.3,25.9,-100.00,WNW,290,0.0,0.0,56,0.00,,,0.00,VWS V14.01,2013-02-02 19:45:00,
2013-02-02 11:50:00,40.5,25.6,-100.00,WSW,251,0.0,0.0,55,0.00,,,0.00,VWS V14.01,2013-02-02 19:50:00,
2013-02-02 11:55:00,40.8,25.9,-100.00,SW,235,2.2,2.7,55,0.00,,,0.00,VWS V14.01,2013-02-02 19:55:00,
2013-02-02 12:00:00,41.0,26.1,-100.00,WSW,258,0.0,0.0,55,0.00,,,0.00,VWS V14.01,2013-02-02 20:00:00,
2013-02-02 12:05:00,41.2,25.8,-100.00,SSW,210,0.0,0.0,54,0.00,,,0.00,VWS V14.01,2013-02-02 20:05:00,
2013-02-02 12:10:00,41.7,26.3,-100.00,WSW,254,0.0,0.0,54,0.00,,,0.00,VWS V14.01,2013-02-02 20:10:00,
2013-02-02 12:15:00,41.7,25.9,-100.00,SW,227,0.0,0.0,53,0.00,,,0.00,VWS V14.01,2013-02-02 20:15:00,
2013-02-02 12:20:00,42.1,25.7,-100.00,North,353,0.0,0.0,52,0.00,,,0.00,VWS V14.01,2013-02-02 20:20:00,
2013-02-02 12:25:00,42.3,25.9,-100.00,NW,304,0.0,3.1,52,0.00,,,0.00,VWS V14.01,2013-02-02 20:25:00,
2013-02-02 12:30:00,42.4,25.6,-100.00,West,264,0.0,0.0,51,0.00,,,0.00,VWS V14.01,2013-02-02 20:30:00,
2013-02-02 12:35:00,42.4,25.6,-100.00,SSE,147,0.0,0.0,51,0.00,,,0.00,VWS V14.01,2013-02-02 20:35:00,
2013-02-02 12:40:00,42.6,25.8,-100.00,ENE,64,0.0,0.0,51,0.00,,,0.00,VWS V14.01,2013-02-02 20:40:00,
2013-02-02 12:44:00,42.8,25.9,-100.00,ENE,64,0.0,0.0,51,0.00,,,0.00,VWS V14.01,2013-02-02 20:44:00,
2013-02-02 12:50:00,42.8,25.9,-100.00,NE,45,0.0,0.0,51,0.00,,,0.00,VWS V14.01,2013-02-02 20:50:00,
2013-02-02 12:55:00,42.8,25.9,-100.00,ESE,122,0.0,0.0,51,0.00,,,0.00,VWS V14.01,2013-02-02 20:55:00,
2013-02-02 13:00:00,43.0,26.1,-100.00,ESE,111,0.0,0.0,51,0.00,,,0.00,VWS V14.01,2013-02-02 21:00:00,
2013-02-02 13:05:00,43.2,25.8,-100.00,ENE,59,0.0,0.0,50,0.00,,,0.00,VWS V14.01,2013-02-02 21:05:00,
2013-02-02 13:10:00,43.3,26.4,-100.00,North,0,0.0,0.0,51,0.00,,,0.00,VWS V14.01,2013-02-02 21:10:00,
2013-02-02 13:15:00,43.5,27.1,-100.00,NW,325,0.0,0.0,52,0.00,,,0.00,VWS V14.01,2013-02-02 21:15:00,
2013-02-02 13:19:00,43.3,26.4,-100.00,North,353,3.1,3.6,51,0.00,,,0.00,VWS V14.01,2013-02-02 21:19:00,
2013-02-02 13:24:00,43.3,26.9,-100.00,NNE,22,0.0,0.0,52,0.00,,,0.00,VWS V14.01,2013-02-02 21:24:00,
2013-02-02 13:29:00,43.3,27.4,-100.00,ENE,61,0.0,2.2,53,0.00,,,0.00,VWS V14.01,2013-02-02 21:29:00,
2013-02-02 13:34:00,43.5,27.1,-100.00,NW,326,2.2,2.7,52,0.00,,,0.00,VWS V14.01,2013-02-02 21:34:00,
2013-02-02 13:39:00,43.7,27.2,-100.00,NE,52,0.0,3.1,52,0.00,,,0.00,VWS V14.01,2013-02-02 21:39:00,
2013-02-02 13:44:00,43.9,26.9,-100.00,NNW,334,2.7,2.7,51,0.00,,,0.00,VWS V14.01,2013-02-02 21:44:00,
2013-02-02 13:49:00,44.1,27.1,-100.00,North,357,0.0,0.0,51,0.00,,,0.00,VWS V14.01,2013-02-02 21:49:00,
2013-02-02 13:54:00,43.9,26.9,-100.00,NNW,340,0.0,0.0,51,0.00,,,0.00,VWS V14.01,2013-02-02 21:54:00,
2013-02-02 13:59:00,43.9,26.9,-100.00,North,5,3.6,3.6,51,0.00,,,0.00,VWS V14.01,2013-02-02 21:59:00,
2013-02-02 14:04:00,44.2,27.3,-100.00,NNW,340,0.0,5.4,51,0.00,,,0.00,VWS V14.01,2013-02-02 22:04:00,
2013-02-02 14:09:00,44.6,27.6,-100.00,NE,48,0.0,0.0,51,0.00,,,0.00,VWS V14.01,2013-02-02 22:09:00,
2013-02-02 14:14:00,44.8,27.3,-100.00,NNW,342,3.1,3.6,50,0.00,,,0.00,VWS V14.01,2013-02-02 22:14:00,
2013-02-02 14:19:00,45.0,27.5,-100.00,NNW,346,0.0,0.0,50,0.00,,,0.00,VWS V14.01,2013-02-02 22:19:00,
2013-02-02 14:24:00,45.0,27.5,-100.00,North,350,2.7,4.5,50,0.00,,,0.00,VWS V14.01,2013-02-02 22:24:00,
2013-02-02 14:29:00,44.8,27.3,-100.00,NNW,344,0.0,0.0,50,0.00,,,0.00,VWS V14.01,2013-02-02 22:29:00,
2013-02-02 14:34:00,44.6,27.1,-100.00,West,270,0.0,0.0,50,0.00,,,0.00,VWS V14.01,2013-02-02 22:34:00,
2013-02-02 14:39:00,44.4,27.0,-100.00,NNW,335,0.0,0.0,50,0.00,,,0.00,VWS V14.01,2013-02-02 22:39:00,
2013-02-02 14:44:00,44.4,27.4,-100.00,NNW,341,0.0,0.0,51,0.00,,,0.00,VWS V14.01,2013-02-02 22:44:00,
2013-02-02 14:49:00,44.2,27.7,-100.00,NNW,348,0.0,0.0,52,0.00,,,0.00,VWS V14.01,2013-02-02 22:49:00,
2013-02-02 14:54:00,44.2,27.3,-100.00,North,353,2.7,2.7,51,0.00,,,0.00,VWS V14.01,2013-02-02 22:54:00,
2013-02-02 14:59:00,44.4,27.4,-100.00,NW,324,0.0,0.0,51,0.00,,,0.00,VWS V14.01,2013-02-02 22:59:00,
2013-02-02 15:04:00,44.6,27.6,-100.00,NW,317,2.7,4.0,51,0.00,,,0.00,VWS V14.01,2013-02-02 23:04:00,
2013-02-02 15:09:00,44.8,27.8,-100.00,NNE,14,4.0,5.4,51,0.00,,,0.00,VWS V14.01,2013-02-02 23:09:00,
2013-02-02 15:14:00,44.6,27.6,-100.00,NNE,16,0.0,0.0,51,0.00,,,0.00,VWS V14.01,2013-02-02 23:14:00,
2013-02-02 15:19:00,44.2,27.7,-100.00,North,0,0.0,0.0,52,0.00,,,0.00,VWS V14.01,2013-02-02 23:19:00,
2013-02-02 15:24:00,43.9,27.9,-100.00,NNE,19,0.0,0.0,53,0.00,,,0.00,VWS V14.01,2013-02-02 23:24:00,
2013-02-02 15:29:00,43.5,28.0,-100.00,North,7,0.0,0.0,54,0.00,,,0.00,VWS V14.01,2013-02-02 23:29:00,
2013-02-02 15:34:00,43.3,28.3,-100.00,North,7,0.0,0.0,55,0.00,,,0.00,VWS V14.01,2013-02-02 23:34:00,
2013-02-02 15:39:00,43.0,27.9,-100.00,North,0,0.0,0.0,55,0.00,,,0.00,VWS V14.01,2013-02-02 23:39:00,
2013-02-02 15:44:00,42.8,28.2,-100.00,North,0,0.0,0.0,56,0.00,,,0.00,VWS V14.01,2013-02-02 23:44:00,
2013-02-02 15:49:00,42.6,28.5,-100.00,North,353,0.0,0.0,57,0.00,,,0.00,VWS V14.01,2013-02-02 23:49:00,
2013-02-02 15:54:00,42.4,28.3,-100.00,North,353,0.0,0.0,57,0.00,,,0.00,VWS V14.01,2013-02-02 23:54:00,
2013-02-02 15:59:00,42.3,28.5,-100.00,North,353,0.0,0.0,58,0.00,,,0.00,VWS V14.01,2013-02-02 23:59:00,
2013-02-02 16:04:00,42.3,28.5,-100.00,North,0,0.0,0.0,58,0.00,,,0.00,VWS V14.01,2013-02-03 00:04:00,
2013-02-02 16:09:00,42.1,28.4,-100.00,North,0,0.0,0.0,58,0.00,,,0.00,VWS V14.01,2013-02-03 00:09:00,
2013-02-02 16:14:00,41.7,28.0,-100.00,North,0,0.0,0.0,58,0.00,,,0.00,VWS V14.01,2013-02-03 00:14:00,
2013-02-02 16:19:00,41.5,28.3,-100.00,North,0,0.0,0.0,59,0.00,,,0.00,VWS V14.01,2013-02-03 00:19:00,
2013-02-02 16:24:00,41.4,28.5,-100.00,North,0,0.0,0.0,60,0.00,,,0.00,VWS V14.01,2013-02-03 00:24:00,
2013-02-02 16:29:00,41.2,28.4,-100.00,North,0,0.0,0.0,60,0.00,,,0.00,VWS V14.01,2013-02-03 00:29:00,
2013-02-02 16:34:00,41.0,28.2,-100.00,North,0,0.0,0.0,60,0.00,,,0.00,VWS V14.01,2013-02-03 00:34:00,
2013-02-02 16:39:00,40.6,28.3,-100.00,North,0,0.0,0.0,61,0.00,,,0.00,VWS V14.01,2013-02-03 00:39:00,
2013-02-02 16:44:00,40.3,28.3,-100.00,North,0,0.0,0.0,62,0.00,,,0.00,VWS V14.01,2013-02-03 00:44:00,
2013-02-02 16:49:00,39.9,28.4,-100.00,North,0,0.0,0.0,63,0.00,,,0.00,VWS V14.01,2013-02-03 00:49:00,
2013-02-02 16:54:00,39.6,28.4,-100.00,North,0,0.0,0.0,64,0.00,,,0.00,VWS V14.01,2013-02-03 00:54:00,
2013-02-02 16:59:00,39.2,28.1,-100.00,North,0,0.0,0.0,64,0.00,,,0.00,VWS V14.01,2013-02-03 00:59:00,
2013-02-02 17:04:00,38.7,27.5,-100.00,North,0,0.0,0.0,64,0.00,,,0.00,VWS V14.01,2013-02-03 01:04:00,
2013-02-02 17:09:00,38.1,27.4,-100.00,North,0,0.0,0.0,65,0.00,,,0.00,VWS V14.01,2013-02-03 01:09:00,
2013-02-02 17:14:00,37.6,26.9,-100.00,North,0,0.0,0.0,65,0.00,,,0.00,VWS V14.01,2013-02-03 01:14:00,
2013-02-02 17:19:00,37.2,28.4,-100.00,North,0,0.0,0.0,70,0.00,,,0.00,VWS V14.01,2013-02-03 01:19:00,
2013-02-02 17:24:00,36.9,29.0,-100.00,North,0,0.0,0.0,73,0.00,,,0.00,VWS V14.01,2013-02-03 01:24:00,
2013-02-02 17:29:00,36.7,28.9,-100.00,North,0,0.0,0.0,73,0.00,,,0.00,VWS V14.01,2013-02-03 01:29:00,
2013-02-02 17:34:00,36.5,29.0,-100.00,North,0,0.0,0.0,74,0.00,,,0.00,VWS V14.01,2013-02-03 01:34:00,
2013-02-02 17:39:00,36.3,28.8,-100.00,North,0,0.0,0.0,74,0.00,,,0.00,VWS V14.01,2013-02-03 01:39:00,
2013-02-02 17:44:00,36.1,28.7,-100.00,North,0,0.0,0.0,74,0.00,,,0.00,VWS V14.01,2013-02-03 01:44:00,
2013-02-02 17:49:00,36.0,28.8,-100.00,North,0,0.0,0.0,75,0.00,,,0.00,VWS V14.01,2013-02-03 01:49:00,
2013-02-02 17:54:00,35.8,28.6,-100.00,North,0,0.0,0.0,75,0.00,,,0.00,VWS V14.01,2013-02-03 01:54:00,
2013-02-02 17:59:00,35.6,28.5,-100.00,North,0,0.0,0.0,75,0.00,,,0.00,VWS V14.01,2013-02-03 01:59:00,
2013-02-02 18:04:00,35.4,28.3,-100.00,North,0,0.0,0.0,75,0.00,,,0.00,VWS V14.01,2013-02-03 02:04:00,
2013-02-02 18:09:00,35.2,28.1,-100.00,North,0,0.0,0.0,75,0.00,,,0.00,VWS V14.01,2013-02-03 02:09:00,
2013-02-02 18:14:00,35.1,28.3,-100.00,North,0,0.0,0.0,76,0.00,,,0.00,VWS V14.01,2013-02-03 02:14:00,
2013-02-02 18:19:00,35.1,28.6,-100.00,North,0,0.0,0.0,77,0.00,,,0.00,VWS V14.01,2013-02-03 02:19:00,
2013-02-02 18:24:00,35.1,28.3,-100.00,North,0,0.0,0.0,76,0.00,,,0.00,VWS V14.01,2013-02-03 02:24:00,
2013-02-02 18:29:00,34.9,28.1,-100.00,North,0,0.0,0.0,76,0.00,,,0.00,VWS V14.01,2013-02-03 02:29:00,
2013-02-02 18:34:00,34.7,28.2,-100.00,North,0,0.0,0.0,77,0.00,,,0.00,VWS V14.01,2013-02-03 02:34:00,
2013-02-02 18:39:00,34.5,27.8,-100.00,North,0,0.0,0.0,76,0.00,,,0.00,VWS V14.01,2013-02-03 02:39:00,
2013-02-02 18:44:00,34.2,27.7,-100.00,North,0,0.0,0.0,77,0.00,,,0.00,VWS V14.01,2013-02-03 02:44:00,
2013-02-02 18:49:00,34.0,27.9,-100.00,North,0,0.0,0.0,78,0.00,,,0.00,VWS V14.01,2013-02-03 02:49:00,
2013-02-02 18:54:00,34.0,28.2,-100.00,North,0,0.0,0.0,79,0.00,,,0.00,VWS V14.01,2013-02-03 02:54:00,
2013-02-02 18:59:00,34.0,28.8,-100.00,North,0,0.0,0.0,81,0.00,,,0.00,VWS V14.01,2013-02-03 02:59:00,
2013-02-02 19:04:00,33.8,28.0,-100.00,North,0,0.0,0.0,79,0.00,,,0.00,VWS V14.01,2013-02-03 03:04:00,
2013-02-02 19:09:00,33.8,28.3,-100.00,North,0,0.0,0.0,80,0.00,,,0.00,VWS V14.01,2013-02-03 03:09:00,
2013-02-02 19:14:00,33.6,28.1,-100.00,North,0,0.0,0.0,80,0.00,,,0.00,VWS V14.01,2013-02-03 03:14:00,
2013-02-02 19:19:00,33.6,29.3,-100.00,North,0,0.0,0.0,84,0.00,,,0.00,VWS V14.01,2013-02-03 03:19:00,
2013-02-02 19:24:00,33.4,28.8,-100.00,North,0,0.0,0.0,83,0.00,,,0.00,VWS V14.01,2013-02-03 03:24:00,
2013-02-02 19:29:00,33.3,28.7,-100.00,North,0,0.0,0.0,83,0.00,,,0.00,VWS V14.01,2013-02-03 03:29:00,
2013-02-02 19:34:00,33.3,29.2,-100.00,North,0,0.0,0.0,85,0.00,,,0.00,VWS V14.01,2013-02-03 03:34:00,
2013-02-02 19:39:00,33.3,29.0,-100.00,North,0,0.0,0.0,84,0.00,,,0.00,VWS V14.01,2013-02-03 03:39:00,
2013-02-02 19:44:00,33.3,29.0,-100.00,North,0,0.0,0.0,84,0.00,,,0.00,VWS V14.01,2013-02-03 03:44:00,
2013-02-02 19:49:00,33.1,28.8,-100.00,North,0,0.0,0.0,84,0.00,,,0.00,VWS V14.01,2013-02-03 03:49:00,
2013-02-02 19:54:00,33.1,28.8,-100.00,North,0,0.0,0.0,84,0.00,,,0.00,VWS V14.01,2013-02-03 03:54:00,
2013-02-02 19:59:00,33.1,28.8,-100.00,North,0,0.0,0.0,84,0.00,,,0.00,VWS V14.01,2013-02-03 03:59:00,
2013-02-02 20:04:00,33.1,28.8,-100.00,North,0,0.0,0.0,84,0.00,,,0.00,VWS V14.01,2013-02-03 04:04:00,
2013-02-02 20:09:00,33.1,28.8,-100.00,North,0,0.0,0.0,84,0.00,,,0.00,VWS V14.01,2013-02-03 04:09:00,
2013-02-02 20:14:00,33.1,28.8,-100.00,North,0,0.0,0.0,84,0.00,,,0.00,VWS V14.01,2013-02-03 04:14:00,
2013-02-02 20:19:00,33.1,28.8,-100.00,North,0,0.0,0.0,84,0.00,,,0.00,VWS V14.01,2013-02-03 04:19:00,
2013-02-02 20:24:00,33.1,28.8,-100.00,North,0,0.0,0.0,84,0.00,,,0.00,VWS V14.01,2013-02-03 04:24:00,
2013-02-02 20:29:00,32.9,28.3,-100.00,North,0,0.0,0.0,83,0.00,,,0.00,VWS V14.01,2013-02-03 04:29:00,
2013-02-02 20:34:00,32.7,28.1,-100.00,North,0,0.0,0.0,83,0.00,,,0.00,VWS V14.01,2013-02-03 04:34:00,
2013-02-02 20:39:00,32.5,28.2,-100.00,North,0,0.0,0.0,84,0.00,,,0.00,VWS V14.01,2013-02-03 04:39:00,
2013-02-02 20:44:00,32.5,28.2,-100.00,North,0,0.0,0.0,84,0.00,,,0.00,VWS V14.01,2013-02-03 04:44:00,
2013-02-02 20:49:00,32.4,28.9,-100.00,North,0,0.0,0.0,87,0.00,,,0.00,VWS V14.01,2013-02-03 04:49:00,
2013-02-02 20:54:00,32.5,29.1,-100.00,North,0,0.0,0.0,87,0.00,,,0.00,VWS V14.01,2013-02-03 04:54:00,
2013-02-02 20:59:00,32.9,30.0,-100.00,North,0,0.0,0.0,89,0.00,,,0.00,VWS V14.01,2013-02-03 04:59:00,
2013-02-02 21:00:00,32.9,30.0,-100.00,North,0,0.0,0.0,89,0.00,,,0.00,VWS V14.01,2013-02-03 05:00:00,
2013-02-02 21:01:00,33.1,30.2,-100.00,North,0,0.0,0.0,89,0.00,,,0.00,VWS V14.01,2013-02-03 05:01:00,
2013-02-02 21:02:00,33.1,30.2,-100.00,North,0,0.0,0.0,89,0.00,,,0.00,VWS V14.01,2013-02-03 05:02:00,
2013-02-02 21:07:00,33.1,29.9,-100.00,North,0,0.0,0.0,88,0.00,,,0.00,VWS V14.01,2013-02-03 05:07:00,
2013-02-02 21:12:00,32.9,29.7,-100.00,North,0,0.0,0.0,88,0.00,,,0.00,VWS V14.01,2013-02-03 05:12:00,
2013-02-02 21:17:00,32.7,29.3,-100.00,North,0,0.0,0.0,87,0.00,,,0.00,VWS V14.01,2013-02-03 05:17:00,
2013-02-02 21:22:00,32.4,28.9,-100.00,North,0,0.0,0.0,87,0.00,,,0.00,VWS V14.01,2013-02-03 05:22:00,
2013-02-02 21:27:00,32.2,28.8,-100.00,North,0,0.0,0.0,87,0.00,,,0.00,VWS V14.01,2013-02-03 05:27:00,
2013-02-02 21:32:00,32.0,28.6,-100.00,North,0,0.0,0.0,87,0.00,,,0.00,VWS V14.01,2013-02-03 05:32:00,
2013-02-02 21:37:00,31.8,28.4,-100.00,North,0,0.0,0.0,87,0.00,,,0.00,VWS V14.01,2013-02-03 05:37:00,
2013-02-02 21:42:00,31.6,28.2,-100.00,North,0,0.0,0.0,87,0.00,,,0.00,VWS V14.01,2013-02-03 05:42:00,
2013-02-02 21:47:00,31.6,28.2,-100.00,North,0,0.0,0.0,87,0.00,,,0.00,VWS V14.01,2013-02-03 05:47:00,
2013-02-02 21:52:00,31.6,28.2,-100.00,North,0,0.0,0.0,87,0.00,,,0.00,VWS V14.01,2013-02-03 05:52:00,
2013-02-02 21:57:00,31.5,28.0,-100.00,North,0,0.0,0.0,87,0.00,,,0.00,VWS V14.01,2013-02-03 05:57:00,
2013-02-02 22:02:00,31.3,27.9,-100.00,North,0,0.0,0.0,87,0.00,,,0.00,VWS V14.01,2013-02-03 06:02:00,
2013-02-02 22:07:00,31.5,28.3,-100.00,North,0,0.0,0.0,88,0.00,,,0.00,VWS V14.01,2013-02-03 06:07:00,
2013-02-02 22:12:00,31.8,29.0,-100.00,North,0,0.0,0.0,89,0.00,,,0.00,VWS V14.01,2013-02-03 06:12:00,
2013-02-02 22:17:00,32.2,29.3,-100.00,SW,223,0.0,0.0,89,0.00,,,0.00,VWS V14.01,2013-02-03 06:17:00,
2013-02-02 22:22:00,32.5,29.7,-100.00,SSW,210,0.0,0.0,89,0.00,,,0.00,VWS V14.01,2013-02-03 06:22:00,
2013-02-02 22:27:00,32.9,30.3,-100.00,SW,220,0.0,0.0,90,0.00,,,0.00,VWS V14.01,2013-02-03 06:27:00,
2013-02-02 22:32:00,33.1,30.5,-100.00,SW,218,0.0,0.0,90,0.00,,,0.00,VWS V14.01,2013-02-03 06:32:00,
2013-02-02 22:37:00,33.4,30.8,-100.00,SW,216,2.7,2.7,90,0.00,,,0.00,VWS V14.01,2013-02-03 06:37:00,
2013-02-02 22:42:00,33.6,31.0,-100.00,SW,218,0.0,0.0,90,0.00,,,0.00,VWS V14.01,2013-02-03 06:42:00,
2013-02-02 22:47:00,33.8,30.9,-100.00,SSW,211,0.0,0.0,89,0.00,,,0.00,VWS V14.01,2013-02-03 06:47:00,
2013-02-02 22:51:00,34.0,31.1,-100.00,SW,224,0.0,0.0,89,0.00,,,0.00,VWS V14.01,2013-02-03 06:51:00,
2013-02-02 22:56:00,34.0,30.8,-100.00,SSW,204,0.0,0.0,88,0.00,,,0.00,VWS V14.01,2013-02-03 06:56:00,
2013-02-02 23:01:00,34.0,30.5,-100.00,SW,228,0.0,0.0,87,0.00,,,0.00,VWS V14.01,2013-02-03 07:01:00,
2013-02-02 23:06:00,33.8,30.1,-100.00,WSW,238,0.0,0.0,86,0.00,,,0.00,VWS V14.01,2013-02-03 07:06:00,
2013-02-02 23:11:00,33.8,29.8,-100.00,SW,223,0.0,0.0,85,0.00,,,0.00,VWS V14.01,2013-02-03 07:11:00,
2013-02-02 23:16:00,33.8,29.8,-100.00,SW,214,3.1,3.1,85,0.00,,,0.00,VWS V14.01,2013-02-03 07:16:00,
2013-02-02 23:21:00,33.8,29.8,-100.00,SW,214,0.0,0.0,85,0.00,,,0.00,VWS V14.01,2013-02-03 07:21:00,
2013-02-02 23:26:00,33.8,29.8,-100.00,SW,216,2.2,2.2,85,0.00,,,0.00,VWS V14.01,2013-02-03 07:26:00,
2013-02-02 23:31:00,33.8,29.8,-100.00,SSW,198,0.0,0.0,85,0.00,,,0.00,VWS V14.01,2013-02-03 07:31:00,
2013-02-02 23:36:00,33.6,29.9,-100.00,SSW,198,0.0,0.0,86,0.00,,,0.00,VWS V14.01,2013-02-03 07:36:00,
2013-02-02 23:41:00,33.6,29.6,-100.00,SW,219,0.0,0.0,85,0.00,,,0.00,VWS V14.01,2013-02-03 07:41:00,
2013-02-02 23:46:00,33.4,29.7,-100.00,SSW,200,0.0,0.0,86,0.00,,,0.00,VWS V14.01,2013-02-03 07:46:00,
2013-02-02 23:51:00,33.4,29.7,-100.00,WSW,240,0.0,0.0,86,0.00,,,0.00,VWS V14.01,2013-02-03 07:51:00,
2013-02-02 23:56:00,33.4,29.7,-100.00,SW,216,2.2,2.2,86,0.00,,,0.00,VWS V14.01,2013-02-03 07:56:00,